マクノート彗星

P/2006 H1 ( McNaught )

English version
Home page
Updated on February 4, 2007

---------------------------------------------------------------------

・ プロフィール

発見日 2006年4月29日
発見光度 17.9等
発見者 R. H. McNaught (Siding Spring Survey)

・ 写真集

・ 軌道要素

Epoch 2006 May 25.0 TT = JDT 2453880.5
T 2006 May 7.38292 TT                                   MPC
q   2.3785243            (2000.0)            P               Q
n   0.07271261     Peri.  310.13558     +0.64629879     +0.76308428
a   5.6849882      Node     0.13083     -0.61472006     +0.52103554
e   0.5816132      Incl.   12.87045     -0.45212511     +0.38239294
P  13.55

・ 星図

・ 光度変化

        m1 = 8.0 + 5 logΔ + 20.0 log r

---------------------------------------------------------------------

軌道要素はM.P.E.C. 2006-P12に掲載されたものです。
星図は StellaNavigator Ver.2.0 for Windows (アストロアーツ 編著 / アスキー出版局刊) で作成したものです。
光度グラフはComet for Windowsで作成したものです。

---------------------------------------------------------------------

Copyright(C) Seiichi Yoshida (comet@aerith.net). All rights reserved.